Flag for U.S.A. Weather past 2 weeks in Irvine, California, U.S.A.

Now
73 °F

Passing clouds.


Feels Like: 76 °F
Forecast: 64 / 72 °F
Wind: 10 mph from Southwest

Location: John Wayne Airport-Orange County Airport

Current Time: Jul 7, 2015 at 5:44:34 PM

Latest Report: Jul 7, 2015 at 4:53 PM


Visibility: 10 mi

Pressure: 29.88 "Hg

Humidity: 64%

Dew point: 60 °F

Location of IrvineLocation

Historic Weather in Irvine — Graph

°F

Irvine temperature yesterday

Maximum temperature yesterday: 73 °F (at 1:53 PM)
Minimum temperature yesterday: 64 °F (at 2:53 AM)
Average temperature yesterday: 67 °F

Past Weeks' High & Low Weather Summary

 TemperatureHumidityPressure
High86 °F (Jun 30, 7:53 PM)97% (Jun 30, 6:53 AM)30.05 "Hg (Jun 30, 6:53 AM)
Low63 °F (Jul 7, 5:53 AM)36% (Jun 30, 7:53 PM)29.78 "Hg (Jun 30, 7:53 PM)
Average70 °F74%29.92 "Hg
* Reported Jun 22 3:53 PM — Jul 7 3:53 PM, Irvine, Weather by CustomWeather, © 2015

Note: Actual official high and low records may vary slightly from our data, if they occured in-between our weather recording intervals... More about our weather records

Advertising

Irvine weather history for previous 24 hours

 ConditionsComfort  
Time TempWeatherWind HumidityBarometerVisibility
3:53 PM
Tue, Jul 7
72 °FScattered clouds.7 mph66%29.90 "Hg10 mi
2:53 PM72 °FPartly sunny.10 mph68%29.92 "Hg10 mi
1:53 PM71 °FOvercast.6 mph71%29.93 "Hg10 mi
12:53 PM69 °FOvercast.6 mph76%29.96 "Hg10 mi
11:53 AM68 °FMore clouds than sun.No wind82%29.97 "Hg10 mi
10:53 AM66 °FFog.No wind87%29.98 "Hg5 mi
9:53 AM65 °FLight rain. Fog.3 mph91%29.99 "Hg6 mi
8:53 AM65 °FLight rain. Fog.No wind91%30.00 "Hg5 mi
7:53 AM65 °FMostly cloudy.No wind91%29.99 "Hg9 mi
6:53 AM64 °FLight rain. Cloudy.No wind94%29.99 "Hg4 mi
5:53 AM63 °FFog.No wind97%29.97 "Hg4 mi
4:53 AM64 °FOvercast.No wind90%29.97 "Hg8 mi
3:53 AM64 °FLow clouds.No wind90%29.97 "Hg7 mi
2:53 AM64 °FFog.No wind90%29.97 "Hg6 mi
1:53 AM64 °FLow clouds.3 mph87%29.99 "Hg9 mi
12:53 AM65 °FOvercast.6 mph85%29.99 "Hg10 mi
11:53 PM
Mon, Jul 6
65 °FOvercast.5 mph81%30.00 "Hg10 mi
10:53 PM65 °FOvercast.No wind81%30.01 "Hg10 mi
9:53 PM65 °FMostly cloudy.5 mph81%29.99 "Hg10 mi
8:53 PM66 °FPartly sunny.7 mph78%29.98 "Hg10 mi
7:53 PM66 °FScattered clouds.8 mph78%29.97 "Hg10 mi
6:53 PM69 °FScattered clouds.8 mph70%29.96 "Hg10 mi
5:53 PM70 °FScattered clouds.7 mph68%29.96 "Hg10 mi
Weather by CustomWeather, © 2015

See weather overviewHow to use our weather pages